Location: Greenshields
(52.7833°N, 110.7667°W)
Time: 10:26:06
(UTC+00:00)

N. Korean satellite - Visible Passes

Search period start: 02 December 2021 00:00
Search period end: 12 December 2021 00:00
Orbit: 447 x 495 km, 97.3° (Epoch: 01 December)

Date Brightness Start Highest point End Pass type
(mag) Time Alt. Az. Time Alt. Az. Time Alt. Az.
02 Dec 9.7 00:46:10 10° SW 00:48:33 17° W 00:50:56 10° NW visible
02 Dec 8.8 12:04:05 10° NE 12:06:55 24° E 12:09:42 10° SSE visible
02 Dec 7.2 13:37:08 10° N 13:40:09 29° WNW 13:43:07 10° SW visible
03 Dec 8.6 00:16:39 10° SSW 00:19:52 32° W 00:23:04 10° NNW visible
03 Dec 9.8 11:36:40 10° ENE 11:38:09 12° E 11:39:38 10° ESE visible
03 Dec 6.3 13:08:22 10° N 13:11:45 61° WNW 13:15:05 10° SSW visible
03 Dec 6.9 23:47:45 10° S 23:51:16 68° WSW 23:54:45 10° NNW visible
04 Dec 6.8 12:39:51 10° NNE 12:43:14 61° ESE 12:46:34 10° S visible
04 Dec 8.2 14:14:12 10° NNW 14:16:01 14° WNW 14:17:49 10° W visible
05 Dec 9.8 00:54:21 10° WSW 00:56:17 14° W 00:58:13 10° NW visible
05 Dec 8.4 12:11:35 10° NNE 12:14:35 28° E 12:17:34 10° SSE visible
05 Dec 7.4 13:44:53 10° N 13:47:43 25° WNW 13:50:32 10° WSW visible
06 Dec 8.9 00:24:30 10° SSW 00:27:32 27° W 00:30:32 10° NW visible
06 Dec 9.5 11:43:49 10° NE 11:45:49 15° E 11:47:49 10° SE visible
06 Dec 6.5 13:16:01 10° N 13:19:19 49° WNW 13:22:35 10° SSW visible
06 Dec 7.3 23:55:26 10° S 23:58:53 55° W 00:02:18 10° NNW visible
07 Dec 6.5 12:47:24 10° NNE 12:50:48 76° ESE 12:54:10 10° S visible
07 Dec 8.3 14:22:10 10° NW 14:23:29 12° WNW 14:24:49 10° W visible
08 Dec 9.9 01:02:38 10° WSW 01:03:56 12° W 01:05:13 10° WNW visible
08 Dec 8.0 12:19:01 10° NNE 12:22:09 34° E 12:25:17 10° SSE visible
08 Dec 7.6 13:52:34 10° NNW 13:55:12 21° WNW 13:57:49 10° WSW visible
09 Dec 9.2 00:32:19 10° SSW 00:35:06 22° W 00:37:53 10° NW visible
09 Dec 9.3 11:51:01 10° NE 11:53:24 18° E 11:55:46 10° SE visible
09 Dec 6.8 13:23:34 10° N 13:26:47 40° WNW 13:29:59 10° SW visible
10 Dec 7.8 00:03:02 10° S 00:06:23 44° W 00:09:43 10° NNW visible
10 Dec 6.9 12:54:51 10° NNE 13:00:14 23° SSW 13:01:40 10° SSW visible
10 Dec 8.5 14:30:30 10° NW 14:30:52 10° WNW 14:31:14 10° WNW visible
11 Dec 8.5 12:26:22 10° NNE 12:32:03 16° SSE 12:32:52 10° S visible
11 Dec 8.0 14:00:10 10° NNW 14:06:09 - WSW 14:01:53 17° NW visible
